Regional Weather Roundup
Issued by NWS Boston, MA

Current Version | Previous Version | Text Only | Print | Product List | Glossary On
Versions: 1 2 3 4 5 6 7 8 9 10 11 12 13 14 15 16 17 18 19 20 21 22 23 24 25 26 27 28 29 30 31 32 33 34 35 36 37 38 39 40 41 42 43 44 45 46 47 48 49 50
000
ASUS41 KBOX 190710
RWRBOX

REGIONAL WEATHER ROUNDUP
NATIONAL WEATHER SERVICE BOSTON/NORTON MA
300 AM EDT THU JUL 19 2018

NOTE:  "FAIR" INDICATES FEW OR NO CLOUDS BELOW 12,000 FEET WITH NO
SIGNIFICANT WEATHER AND/OR OBSTRUCTIONS TO VISIBILITY.

MAZALL-190800-
EASTERN MASSACHUSETTS

CITY           SKY/WX    TMP DP  RH WIND       PRES   REMARKS
BOSTON         FAIR      67  49  52 N7        30.01R
BEVERLY        FAIR      55  50  83 N7        30.00R
LAWRENCE       FAIR      60  50  69 W3        30.04R
BEDFORD        FAIR      55  50  83 CALM      30.01R
BLUE HILL        N/A     60  50  69 N10       30.01R
NORWOOD        FAIR      53  51  93 CALM      30.01R
MARSHFIELD     FAIR      66  57  72 VRB6      29.99R
PLYMOUTH       FAIR      60  55  83 N6        30.00R
TAUNTON        FAIR      54  52  93 CALM      30.00R FOG
NEW BEDFORD    FAIR      56  55  97 CALM      29.98R
$$

MAZALL-190800-
CAPE COD AND THE ISLANDS

CITY           SKY/WX    TMP DP  RH WIND       PRES   REMARKS
FALMOUTH       FAIR      61  55  82 N6        30.00R
HYANNIS        FAIR      62  58  86 N6        29.97R
CHATHAM        FAIR      64  59  83 CALM      29.98R
PROVINCETOWN   FAIR      67  58  72 N12       29.99R
NANTUCKET      FAIR      60  57  89 NW3       29.97R
MARTHAS VNYRD  FAIR      51  51 100 NW5       29.98R
$$

MAZALL-190800-
CENTRAL AND WESTERN MASSACHUSETTS

CITY           SKY/WX    TMP DP  RH WIND       PRES   REMARKS
WORCESTER      NOT AVBL
FITCHBURG      FAIR      54  52  93 N3        30.04R
ORANGE         FAIR      53  50  89 CALM      30.06R
SPRINGFIELD    FAIR      53  51  94 N3        30.03R
WESTFIELD      FAIR      55  54  96 CALM      30.04R
NORTH ADAMS    FAIR      50  48  93 CALM      30.07R
PITTSFIELD       N/A    N/A N/A N/A MISG      30.06R
$$

RIZALL-190800-
RHODE ISLAND

CITY           SKY/WX    TMP DP  RH WIND       PRES   REMARKS
PROVIDENCE     FAIR      64  50  60 N9        30.01R
NEWPORT        FAIR      62  52  69 N7        30.00R
BLOCK ISLAND   FAIR      64  58  80 N3        30.01R
SMITHFIELD     FAIR      60  49  66 N7        30.02R
WESTERLY       FAIR      60  56  86 CALM      30.01R
$$

CTZALL-190800-
CONNECTICUT

CITY           SKY/WX    TMP DP  RH WIND       PRES   REMARKS
BRADLEY INTL   FAIR      58  53  84 N5        30.03R
HARTFORD       FAIR      61  55  81 NE5       30.03R
BRIDGEPORT     FAIR      66  53  63 N7        30.01R
DANBURY        FAIR      56  53  90 SW3       30.05R
GROTON         FAIR      61  51  70 N8        30.01R
NEW HAVEN      FAIR      63  55  75 N7        30.02R
CHESTER        FAIR      63  50  63 NW5       30.03R
MERIDEN        FAIR      57  55  93 CALM      30.03R
WILLIMANTIC    FAIR      55  54  96 CALM      30.03R
OXFORD         FAIR      56  53  90 CALM      30.05R
$$

MEZ002-015-021-024-NHZ003-005-008-011-012-014-VTZ005-008-190800-
NORTHERN NEW ENGLAND

CITY           SKY/WX    TMP DP  RH WIND       PRES   REMARKS
PORTLAND ME    FAIR      56  49  77 NW5       30.00S
BANGOR ME      FAIR      52  50  93 CALM      29.99R
CONCORD NH     FAIR      51  48  89 CALM      30.04R
MANCHESTER NH  FAIR      61  50  67 NW5       30.01S
NASHUA NH      FAIR      56  52  86 NW7       30.03S
PORTSMOUTH NH  CLEAR     57  50  79 W5        30.00R
JAFFREY NH     FAIR      50  49  96 CALM      30.06R
KEENE NH       FAIR      49  48  97 CALM      30.06S
BURLINGTON VT  FAIR      53  47  79 CALM      30.05R
MT. WASHINGTON CLEAR     39  32  75 N28         N/A  WCI  28
$$

NYZ052-076-190800-
EASTERN NEW YORK

CITY           SKY/WX    TMP DP  RH WIND       PRES   REMARKS
ALBANY         FAIR      58  49  72 CALM      30.06R
NEW YORK CITY  FAIR      71  56  58 NE8       30.01R
$$

ANZALL-190800-
MARINE OBSERVATIONS

STATION/POSITION TIME  TEMP    WIND        PRES    VSBY  WAVE
                       AIR SEA DIR/SP/G                  HT/PER
                 (UTC) (F)     (DEG/KT/KT) (MB)    (MI)  (FT/S)
BOSTON BUOY      0650   69 69   20/ 14/ 17 1015.0R         2/ 7
BUZZARDS BAY     NOT AVBL
NANTUCKET SOUND  0650   72 74  340/ 10/ 12 1014.9R         1
MASS BAY-STELLWA 0604   69 67   20/ 14/ 16 1014.1R         2/ 8
ISLE OF SHOALS   NOT AVBL
S OF BLOCK IS    0643      72                N/A           3/ 8
$$

......................KEY.........................
  SKY/WX - SKY CONDITION/PRESENT WEATHER
  TMP    - TEMPERATURE IN FAHRENHEIT
  DWPT   - DEWPOINT IN FAHRENHEIT
  RH     - RELATIVE HUMIDITY IN PERCENT
  WIND   - DIRECTION AND SPEED IN MPH
  PRES   - MEAN SEA LEVEL PRESSURE IN INCHES OF HG
  WCI    - WIND CHILL INDEX
  VSB    - VISIBILITY IN MILES
  HX     - HEAT INDEX
  TC     - TEMPERATURE IN CELSIUS
  VRB    - VARIABLE WIND DIRECTION
  N/A    - NOT AVAILABLE



USA.gov is the U.S. government's official web portal to all federal, state and local government web resources and services.